Regional Weather Roundup
Issued by NWS Little Rock, AR

Home | Current Version | Previous Version | Text Only | Print | Product List | Glossary On
Versions: 1 2 3 4 5 6 7 8 9 10 11 12 13 14 15 16 17 18 19 20 21 22 23 24 25 26 27 28 29 30 31 32 33 34 35 36 37 38 39 40 41 42 43 44 45 46 47 48 49 50
000
ASUS44 KLZK 190405
RWRLZK

WEATHER ROUNDUP FOR ARKANSAS
NATIONAL WEATHER SERVICE LITTLE ROCK AR
1000 PM CST SUN FEB 18 2018

NOTE: "FAIR" INDICATES FEW OR NO CLOUDS BELOW 12,000 FEET WITH NO
SIGNIFICANT WEATHER AND/OR OBSTRUCTIONS TO VISIBILITY.

ARZ001-003-010-029-190500-
NORTHWEST ARKANSAS

CITY           SKY/WX    TMP DP  RH WIND       PRES   REMARKS
FAYETTEVILLE   CLOUDY    52  52 100 S13       29.89F
FORT SMITH     CLOUDY    50  48  93 E8        29.93F
HARRISON       CLOUDY    48  46  93 S16G23    29.91F
BENTONVILLE    CLOUDY    53  51  93 S13G22    29.89S
ROGERS         CLOUDY    54  51  90 S22       29.87S
SILOAM SPGS    LGT RAIN  51  50  96 S17       29.88S
$$

ARZ004-005-016-190500-
NORTH CENTRAL ARKANSAS

CITY           SKY/WX    TMP DP  RH WIND       PRES   REMARKS
BATESVILLE     CLOUDY    49  48  97 VRB7      30.02F FOG
FLIPPIN        CLOUDY    49  45  86 S9        29.96F
MTN HOME       CLOUDY    48  47  96 S12       29.95F
$$

ARZ040-041-190500-
WEST CENTRAL ARKANSAS

CITY           SKY/WX    TMP DP  RH WIND       PRES   REMARKS
MENA           CLOUDY   N/A N/A N/A S6G20     29.95S
MOUNT IDA      CLOUDY    49  49 100 E3        29.95F FOG
$$

ARZ009-017-025-026-028-190500-
NORTHEAST ARKANSAS

CITY           SKY/WX    TMP DP  RH WIND       PRES   REMARKS
JONESBORO      CLOUDY    52  52 100 S10       30.04S FOG
NEWPORT          N/A     50  50 100 S10       30.04F FOG
WALNUT RIDGE   CLOUDY    50  49  96 S15       30.03S
BLYTHEVILLE    CLOUDY    54  52  93 S13       30.05F
$$

ARZ022-023-033-042-044-190500-
CENTRAL ARKANSAS

CITY           SKY/WX    TMP DP  RH WIND       PRES   REMARKS
LITTLE ROCK    FOG       49  49 100 CALM      30.03F VSB 1/4
N LITTLE ROCK    N/A     48  48 100 S6        30.01F
JACKSONVILLE   FOG       50  50 100 SE3       30.02F VSB 3/4
SEARCY         FOG       50  32  50 SE3       30.04F VSB 3/4
HOT SPRINGS    FOG       49  49 100 E8        30.00F VSB 1
RUSSELLVILLE   CLOUDY    47  47 100 E5        29.99F FOG
CLINTON        FOG       46  46 100 CALM      30.02F VSB 3/4
$$

ARZ036-190500-
EAST ARKANSAS

CITY           SKY/WX    TMP DP  RH WIND       PRES   REMARKS
WEST MEMPHIS   CLOUDY    53  53 100 SE10      30.06S FOG
$$

ARZ050-053-066-070-073-190500-
SOUTHWEST ARKANSAS

CITY           SKY/WX    TMP DP  RH WIND       PRES   REMARKS
ARKADELPHIA    FOG       50  49  96 CALM      30.02F VSB 1/2
CAMDEN         CLOUDY    54  52  94 CALM      30.02S FOG
TEXARKANA      FOG       53  53 100 E5        29.99S VSB 3/4
EL DORADO      CLOUDY    61  61 100 S8        30.02R
DE QUEEN       FOG       49  49 100 E5        29.97S VSB 1
$$

ARZ056-057-069-190500-
SOUTHEAST ARKANSAS

CITY           SKY/WX    TMP DP  RH WIND       PRES   REMARKS
PINE BLUFF     CLOUDY    52  52 100 CALM      30.04R FOG
STUTTGART      LGT RAIN  52  52 100 S7        30.05S VSB 1/2
MONTICELLO     CLOUDY    60  58  92 CALM      30.04R

$$





USA.gov is the U.S. government's official web portal to all federal, state and local government web resources and services.